Weather Roundup
Issued by NWS

Home | Current Version | Previous Version | Graphics & Text | Print | Product List | Glossary Off
Versions: 1 2 3 4 5 6 7 8 9 10 11 12 13 14 15 16 17 18 19 20 21 22 23 24 25 26 27 28 29 30 31 32 33 34 35 36 37 38 39 40 41 42 43 44 45 46 47 48 49 50

000
NZUS93 KARX 010359
HRRWXR

CURRENT HOURLY OBSERVATIONS ACROSS
MUCH OF THE UPPER MISSISSIPPI VALLEY
NATIONAL WEATHER SERVICE LA CROSSE WI
1100 PM CDT THU JUL 31 2014


...SOUTHEAST MINNESOTA...


CITY           SKY/WX    TMP DP  RH WIND       PRES   REMARKS
ROCHESTER      CLEAR     63  57  81 W7        30.06R
ROCHESTER/MAYO FAIR      70  55  57 W3        30.05R
WINONA         CLEAR     66  63  88 CALM      30.02S
AUSTIN         CLEAR     63  57  82 CALM      30.05S
ALBERT LEA     CLEAR     63  61  94 CALM      30.05S
DODGE CENTER   CLEAR     63  57  82 SW3       30.05S
PRESTON        CLEAR     64  61  89 W5        30.06R
OWATONNA       CLEAR     61  55  82 CALM      30.04S
FARIBAULT      CLEAR     63  55  77 CALM      30.04S
$$

...ELSEWHERE IN MINNESOTA...


CITY           SKY/WX    TMP DP  RH WIND       PRES   REMARKS
MINNEAPOLIS    CLEAR     74  58  57 SW3       30.01S
INTNL FALLS    CLEAR     54  53  97 CALM      29.99S
DULUTH         CLEAR     62  57  83 CALM      30.00R
RED WING       CLEAR     63  61  94 CALM      30.00S
REDWOOD FALLS  CLEAR     67  58  72 CALM      30.03S
MANKATO        CLEAR     66  54  63 SW3       30.04R
WORTHINGTON    PTCLDY    68  61  77 CALM      30.08S
FAIRMONT       PTCLDY    66  57  72 CALM      30.05S
$$

...SOUTHWEST WISCONSIN...


CITY           SKY/WX    TMP DP  RH WIND       PRES   REMARKS
LA CROSSE      CLEAR     67  62  84 SE6       30.01R
PRAIRIE DU CHI CLEAR     63  58  84 E3        30.03S
BOSCOBEL       CLEAR     62  59  90 CALM      30.03S
LONE ROCK      NOT AVBL
PLATTEVILLE    CLEAR     67  58  74 S3        30.05S
FORT MC COY    CLEAR     61  59  94 CALM      30.03S
CAMP DOUGLAS   CLEAR     59  59 100 NW1       30.02S
VIROQUA        FAIR      65  58  77 S3        30.05R
WIS DELLS      CLEAR     62  56  80 CALM      30.03S
$$

...ELSEWHERE IN WISCONSIN...


CITY           SKY/WX    TMP DP  RH WIND       PRES   REMARKS
MILWAUKEE      CLEAR     73  57  57 W8        30.01S
MADISON        MOCLDY    65  59  81 CALM      30.02S
GREEN BAY      PTCLDY    63  60  90 W5        29.98S
EAU CLAIRE     NOT AVBL
BLACK RVR FLS  FAIR      61  61 100 S3        30.01S
MEDFORD        PTCLDY    58  57  99 CALM      30.02S FOG
WAUSAU         PTCLDY    66  60  81 NW5       29.99S
WIS RAPIDS     CLEAR     67  59  75 W6        30.02R
MARSHFIELD     PTCLDY    63  59  87 CALM      30.01S
RICE LAKE      CLEAR     64  61  89 CALM      30.01S
$$

...NORTHEAST IOWA...


CITY           SKY/WX    TMP DP  RH WIND       PRES   REMARKS
WATERLOO       CLEAR     65  60  84 CALM      30.03S
DUBUQUE        CLEAR     63  59  87 CALM      30.05F
DECORAH        CLEAR     63  57  82 CALM      30.04S
MASON CITY     CLEAR     62  59  90 CALM      30.06S
CHARLES CITY   CLEAR     61  59  94 CALM      30.06S
OELWEIN        PTCLDY    64  59  82 CALM      30.06R
$$

...ELSEWHERE IN IOWA...


CITY           SKY/WX    TMP DP  RH WIND       PRES   REMARKS
DES MOINES     PTCLDY    70  62  76 NE3       30.05R
IOWA CITY      PTCLDY    67  62  84 CALM      30.06S
FORT DODGE     PTCLDY    61  57  88 CALM      30.07R
MARSHALLTOWN   PTCLDY    64  60  87 W5        30.05S
CEDAR RAPIDS   PTCLDY    64  62  93 CALM      30.04S
$$

...NORTHERN ILLINOIS...


CITY           SKY/WX    TMP DP  RH WIND       PRES   REMARKS
CHICAGO-OHARE  CLEAR     71  57  61 SW5       30.04S
DUPAGE         CLEAR     65  59  81 SW3       30.04F
CHICAGO-MIDWAY CLEAR     74  62  66 SW7       30.04S
MOLINE         CLEAR     65  61  87 CALM      30.05S
ROCKFORD       CLEAR     65  58  78 S3        30.06S
STERLING       PTCLDY    68  61  77 SW5       30.06R
PEORIA         CLEAR     68  63  84 CALM      30.06F
$$

NOTE: "FAIR" INDICATES FEW OR NO CLOUDS BELOW 12,000 FEET WITH NO
SIGNIFICANT WEATHER AND/OR OBSTRUCTIONS TO VISIBILITY. WIND
SPEEDS ARE IN MILES-PER-HOUR.



USA.gov is the U.S. government's official web portal to all federal, state and local government web resources and services.